Showing default

USA 59, 20641

Orbit data source: Space-Track

USA 59, 20641 is an American payload satellite in HEO that was launched on Fri, 08 Jun 1990 UTC via a TITAN 405A launch vehicle from the Air Force Eastern Test Range (AFETR). Payloads include a variety of satellites, spacecraft, and rockets equipped with specific instruments for various scientific and technological missions. These include communications satellites like Starlink; space stations such as the ISS; scientific satellites like the Hubble; Earth observation satellites from companies like Planet Labs, Umbra, and HawkEye 360; GPS; miniature CubeSats for education and research; and military/defense satellites.

Loading next visibility...
USA 59 details
Identifier
20641, 1990-050A
Orbit
HEO
Last TLE update2 days ago
Origin
Flag of USNRO/NRL (US)
ManufacturerNRL
MissionDefense Sigint
Bus & MotorNOSS B, Unknown motor
Mass~3,000 kg wet, ~3,000 kg dry
Launch date (UTC)
1990-06-08 (35 years ago)
Launch vehicle
TITAN 405A
Launch site
Air Force Eastern Test Range (AFETR)
Object type
Payload
Rocket body
Debris
Shape & HBRCyl, 1 m
Radar Cross Section1.178 m²

Expand to show TLE details & history

TLE from 2 days ago
0 USA 59
1 20641U 90050A   25014.08111464 -.00000039  00000-0  00000-0 0  9997
2 20641  63.4170  16.4398 4071216 265.9344  47.9079  6.02574495 15050
Epoch: 2025-01-14T01:56Z
Definitive object data (Epoch: 2025-01-14T01:56:48.304Z)
Latitude0.00005°
Longitude-126.55748°
Altitude4,584.218 km
Speed6.441 km/s
True Right ascension01h 05m 44s
True Declination0° 00' 00"
Sunlit
Object was in daylight at TLE epoch
Visualization TLE readout
Latitude61.63622°
Longitude-59.74382°
Altitude11,507.482 km
Speed3.655 km/s
Apparent Right ascension04h 54m 29s
Apparent Declination41° 41' 36"
Sunlit
Object is in daylight
Visualization observer readout
Local Sidereal Time15:46:57
Azimuth347.382° N
Elevation-6.964°
Doppler factor1
Orbital elements
Apogee altitude11,570.402 km
Perigee altitude1,184.323 km
Semi-major axis12,755.5 km
Eccentricity0.4071216
Inclination63.417°
RAAN16.4398°
Arg. of periapsis265.9344°
True anomaly94.1246°
Mean anomaly47.9079°
Eccentric anomaly69.79944°
Mean motion1.5066 °/min
BSTARUnknown
Orbital period238.95 mins
Loading maneuver chart data...
Loading historical data...
Loading historical data...
Loading historical data...
Loading historical data...
Loading historical data...
Loading historical data...
Loading historical data...

USA 59 Visibility forecast

Observer location: undefined°, undefined

Span
Click to sort rows by Start time (UTC) header in descending order
Start Az.
Max El. time (UTC)
Max El. Az.
Max El.
End time (UTC)
End Az.
83 mins2025-01-15 21:52:09.300Z116.854° SE2025-01-15 22:23:09.300Z69.1° E24.827°2025-01-15 23:15:09.300Z31.039° NE
129 mins2025-01-16 01:46:09.300Z211.868° SW2025-01-16 02:22:09.300Z296.248° NW44.815°2025-01-16 03:55:09.300Z46.668° ENE
141 mins2025-01-16 06:12:09.300Z287.374° WNW2025-01-16 07:42:09.300Z22.913° NE40.27°2025-01-16 08:33:09.300Z105.919° ESE
103 mins2025-01-16 10:59:09.300Z325.601° NNW2025-01-16 12:14:09.300Z265.965° W40.862°2025-01-16 12:42:09.300Z189.823° SSW
|